FW1757 Weather Reports


time (UTC)temp
C
wind
direction
speed
KPH
gust
KPH
rain 1hr
cm
rain 24hr
cm
rain mn
cm
humidity
%
barometer
mb
20260503055037 17 232 0.0 0.0 0.00 0.00 0.00 63 1011.7
20260503054539 17 233 0.0 0.0 0.00 0.00 0.00 63 1011.7
20260503054037 17 233 0.0 0.0 0.00 0.00 0.00 64 1011.7
20260503053538 17 233 0.0 0.0 0.00 0.00 0.00 64 1011.7
20260503053039 17 233 0.0 0.0 0.00 0.00 0.00 64 1011.7
20260503052537 17 234 0.0 0.0 0.00 0.00 0.00 64 1011.7
20260503052037 17 234 0.0 0.0 0.00 0.00 0.00 64 1011.7
20260503051536 17 234 0.0 0.0 0.00 0.00 0.00 64 1011.6
20260503051037 17 234 0.0 0.0 0.00 0.00 0.00 64 1011.5
20260503050537 17 234 0.0 0.0 0.00 0.00 0.00 64 1011.6
20260503050036 17 234 0.0 0.0 0.00 0.00 0.00 64 1011.5
20260503045538 17 234 0.0 0.0 0.00 0.00 0.00 64 1011.6
20260503045038 17 234 0.0 0.0 0.00 0.00 0.00 64 1011.4
20260503044535 17 234 0.0 0.0 0.00 0.00 0.00 64 1011.5
20260503044034 17 234 0.0 0.0 0.00 0.00 0.00 64 1011.5
20260503043534 17 234 0.0 0.0 0.00 0.00 0.00 65 1011.4
20260503043040 17 277 0.0 0.0 0.00 0.00 0.00 65 1011.4
20260503042534 17 277 0.0 0.0 0.00 0.00 0.00 65 1011.3
20260503042034 17 277 0.0 0.0 0.00 0.00 0.00 65 1011.4
20260503041534 17 281 0.0 0.0 0.00 0.00 0.00 65 1011.3
20260503041033 17 281 0.0 0.0 0.00 0.00 0.00 66 1011.2
20260503040533 18 281 0.0 0.0 0.00 0.00 0.00 66 1011.1
20260503040045 18 281 0.0 0.0 0.00 0.00 0.00 66 1011.1
20260503035533 18 281 0.0 0.0 0.00 0.00 0.00 66 1010.9
20260503035033 18 281 0.0 0.0 0.00 0.00 0.00 65 1010.7
20260503034545 19 281 0.0 0.0 0.00 0.00 0.00 65 1010.6
20260503034032 19 281 0.0 0.0 0.00 0.00 0.00 65 1010.4
20260503033533 19 281 0.0 0.0 0.00 0.00 0.00 64 1010.4
20260503033039 20 281 0.0 0.0 0.00 0.00 0.00 63 1010.2
20260503032532 20 281 0.0 0.0 0.00 0.00 0.00 62 1010.2
20260503032034 20 281 0.0 0.0 0.00 0.00 0.00 61 1010.2
20260503031538 20 281 0.0 0.0 0.00 0.00 0.00 62 1009.9
20260503031032 21 281 0.0 0.0 0.00 0.00 0.00 60 1009.9
20260503030532 21 281 0.0 0.0 0.00 0.00 0.00 59 1009.9
20260503030045 21 281 0.0 0.0 0.00 0.00 0.00 58 1009.9
20260503025531 21 281 0.0 0.0 0.00 0.00 0.00 57 1009.8
20260503025033 22 281 0.0 0.0 0.00 0.00 0.00 56 1009.9
20260503024531 22 281 0.0 0.0 0.00 0.00 0.00 56 1009.8
20260503024031 22 281 0.0 0.0 0.00 0.00 0.00 56 1009.7
20260503023532 22 281 0.0 0.0 0.00 0.00 0.00 54 1009.7
20260503023031 22 281 0.0 0.0 0.00 0.00 0.00 52 1009.6
20260503022530 23 281 0.0 0.0 0.00 0.00 0.00 52 1009.5
20260503022029 23 281 0.0 0.0 0.00 0.00 0.00 52 1009.3
20260503021539 24 281 0.0 0.0 0.00 0.00 0.00 51 1009.3
20260503021030 24 281 0.0 0.0 0.00 0.00 0.00 51 1009.3
20260503020530 25 281 0.0 0.0 0.00 0.00 0.00 48 1009.2
20260503020030 25 281 0.0 0.0 0.00 0.00 0.00 49 1009.1
20260503015531 26 281 0.0 0.0 0.00 0.00 0.00 46 1009.1
20260503015028 26 281 0.0 0.0 0.00 0.00 0.00 46 1009.1
20260503014528 26 281 0.0 0.0 0.00 0.00 0.00 45 1009.0
20260503014028 26 281 0.0 0.0 0.00 0.00 0.00 48 1009.1
20260503013528 26 281 0.0 0.0 0.00 0.00 0.00 47 1009.0
20260503013028 26 281 0.0 0.0 0.00 0.00 0.00 41 1009.1
20260503012528 27 281 0.0 0.0 0.00 0.00 0.00 45 1009.1
20260503012028 27 281 0.0 0.0 0.00 0.00 0.00 41 1009.2
20260503011528 27 281 0.0 0.0 0.00 0.00 0.00 46 1009.2
20260503011027 27 281 0.0 0.0 0.00 0.00 0.00 41 1009.3
20260503010527 27 281 0.0 0.0 0.00 0.00 0.00 40 1009.2
20260503010027 27 281 0.0 0.0 0.00 0.00 0.00 39 1009.2
20260503005526 27 281 0.0 0.0 0.00 0.00 0.00 41 1009.2
20260503005027 27 281 0.0 0.0 0.00 0.00 0.00 45 1009.4
20260503004525 27 281 0.0 0.0 0.00 0.00 0.00 45 1009.3
20260503004029 27 281 0.0 0.0 0.00 0.00 0.00 42 1009.3
20260503003525 27 281 0.0 0.0 0.00 0.00 0.00 40 1009.3
20260503003025 28 281 0.0 0.0 0.00 0.00 0.00 41 1009.4
20260503002525 28 281 0.0 0.0 0.00 0.00 0.00 39 1009.4
20260503002027 28 281 0.0 0.0 0.00 0.00 0.00 40 1009.2
20260503001524 28 281 0.0 0.0 0.00 0.00 0.00 43 1009.3
20260503001025 28 281 0.0 0.0 0.00 0.00 0.00 41 1009.5
20260503000523 28 281 0.0 0.0 0.00 0.00 0.00 41 1009.4
20260503000031 28 281 0.0 0.0 0.00 0.00 0.00 42 1009.5
20260502235523 28 281 0.0 0.0 0.00 0.00 0.00 41 1009.5
20260502235022 28 281 0.0 0.0 0.00 0.00 0.00 41 1009.6
20260502234521 28 281 0.0 0.0 0.00 0.00 0.00 43 1009.7
20260502234021 28 281 0.0 0.0 0.00 0.00 0.00 45 1009.8
20260502233520 28 281 0.0 0.0 0.00 0.00 0.00 43 1009.8
20260502233021 28 281 0.0 0.0 0.00 0.00 0.00 43 1009.9
20260502232519 28 281 0.0 0.0 0.00 0.00 0.00 44 1009.9
20260502232019 28 278 0.0 0.0 0.00 0.00 0.00 44 1009.9
20260502231522 28 259 0.0 0.0 0.00 0.00 0.00 38 1009.9
20260502231021 29 259 0.0 0.0 0.00 0.00 0.00 42 1010.0
20260502230519 29 259 0.0 0.0 0.00 0.00 0.00 42 1010.0
20260502230017 28 296 0.0 0.0 0.00 0.00 0.00 43 1010.1
20260502225516 28 296 0.0 0.0 0.00 0.00 0.00 42 1010.2
20260502225015 28 296 0.0 0.0 0.00 0.00 0.00 41 1010.3
20260502224515 28 296 0.0 0.0 0.00 0.00 0.00 43 1010.3
20260502224015 29 296 0.0 0.0 0.00 0.00 0.00 41 1010.3
20260502223514 30 296 0.0 0.0 0.00 0.00 0.00 39 1010.4
20260502223015 30 305 0.0 0.0 0.00 0.00 0.00 40 1010.5
20260502222512 30 346 0.0 0.0 0.00 0.00 0.00 42 1010.6
20260502222013 30 22 0.0 0.0 0.00 0.00 0.00 39 1010.7
20260502221510 29 17 0.0 0.0 0.00 0.00 0.00 37 1010.8
20260502221009 29 238 0.0 0.0 0.00 0.00 0.00 38 1010.9
20260502220508 28 232 0.0 0.0 0.00 0.00 0.00 35 1010.9
20260502220009 28 321 0.0 0.0 0.00 0.00 0.00 37 1010.9
20260502215504 28 304 0.0 0.0 0.00 0.00 0.00 36 1011.1
20260502215004 27 300 0.0 0.0 0.00 0.00 0.00 41 1011.3
20260502214502 27 300 0.0 0.0 0.00 0.00 0.00 38 1011.3
20260502214101 27 300 0.0 0.0 0.00 0.00 0.00 42 1011.3
20260502213559 26 301 0.0 0.0 0.00 0.00 0.00 42 1011.5
20260502213058 26 302 0.0 0.0 0.00 0.00 0.00 40 1011.4
20260502212557 26 302 0.0 0.0 0.00 0.00 0.00 43 1011.7
20260502212056 25 302 0.0 0.0 0.00 0.00 0.00 40 1011.8
20260502211555 25 302 0.0 0.0 0.00 0.00 0.00 40 1011.9
20260502211058 25 298 0.0 0.0 0.00 0.00 0.00 45 1011.9
20260502210552 25 298 0.0 0.0 0.00 0.00 0.00 47 1011.8
20260502210101 24 298 0.0 0.0 0.00 0.00 0.00 49 1011.9
20260502205551 24 273 0.0 0.0 0.00 0.00 0.00 47 1011.8
20260502205052 24 273 0.0 0.0 0.00 0.00 0.00 48 1011.9
20260502204549 23 273 0.0 0.0 0.00 0.00 0.00 54 1011.9
20260502204048 23 273 0.0 0.0 0.00 0.00 0.00 56 1011.9
20260502203547 23 273 0.0 0.0 0.00 0.00 0.00 59 1012.0
20260502203049 23 251 0.0 0.0 0.00 0.00 0.00 58 1012.0
20260502202544 22 290 0.0 0.0 0.00 0.00 0.00 57 1012.2
20260502202043 22 53 0.0 0.0 0.00 0.00 0.00 56 1012.2
20260502201542 22 54 0.0 0.0 0.00 0.00 0.00 59 1012.2
20260502201041 21 56 0.0 0.0 0.00 0.00 0.00 57 1012.1
20260502200539 21 61 0.0 0.0 0.00 0.00 0.00 59 1012.3
20260502200038 20 61 0.0 0.0 0.00 0.00 0.00 57 1012.3
20260502195536 20 290 0.0 0.0 0.00 0.00 0.00 65 1012.3
20260502195038 20 288 0.0 0.0 0.00 0.00 0.00 61 1012.4
20260502194534 19 288 0.0 0.0 0.00 0.00 0.00 61 1012.7
20260502194033 19 288 0.0 0.0 0.00 0.00 0.00 63 1012.7
20260502193531 18 289 0.0 0.0 0.00 0.00 0.00 66 1012.8
20260502193032 18 288 0.0 0.0 0.00 0.00 0.00 66 1012.9
20260502192532 18 288 0.0 0.0 0.00 0.00 0.00 66 1013.0
20260502192027 17 288 0.0 0.0 0.00 0.00 0.00 66 1013.2
20260502191527 17 277 0.0 0.0 0.00 0.00 0.00 66 1013.3
20260502191031 17 300 0.0 0.0 0.00 0.00 0.00 66 1013.3
20260502190525 17 300 0.0 0.0 0.00 0.00 0.00 67 1013.4
20260502190030 17 300 0.0 0.0 0.00 0.00 0.00 66 1013.4
20260502185522 17 300 0.0 0.0 0.00 0.00 0.00 67 1013.4
20260502185022 17 300 0.0 0.0 0.00 0.00 0.00 66 1013.5
20260502184523 17 300 0.0 0.0 0.00 0.00 0.00 67 1013.6
20260502184021 16 244 0.0 0.0 0.00 0.00 0.00 67 1013.7
20260502183521 16 287 0.0 0.0 0.00 0.00 0.00 66 1013.5
20260502183020 16 292 0.0 0.0 0.00 0.00 0.00 66 1013.6
20260502182521 16 292 0.0 0.0 0.00 0.00 0.00 65 1013.6
20260502182019 16 285 0.0 0.0 0.00 0.00 0.00 63 1013.6
20260502181519 16 285 0.0 0.0 0.00 0.00 0.00 64 1013.4
20260502181022 16 285 0.0 0.0 0.00 0.00 0.00 60 1013.3
20260502180518 16 273 0.0 0.0 0.00 0.00 0.00 60 1013.3
20260502170515 12 155 0.0 0.0 0.00 0.00 0.00 30 1013.3
20260502164016 12 280 0.0 0.0 0.00 0.00 0.00 34 1013.9
20260502163514 12 280 0.0 0.0 0.00 0.00 0.00 32 1014.1
20260502163015 12 280 0.0 0.0 0.00 0.00 0.00 31 1014.0
20260502162514 12 281 0.0 0.0 0.00 0.00 0.00 32 1013.9
20260502162015 12 281 0.0 0.0 0.00 0.00 0.00 32 1014.0
20260502161514 12 279 0.0 0.0 0.00 0.00 0.00 32 1014.0
20260502161013 12 290 0.0 0.0 0.00 0.00 0.00 33 1014.1
20260502160513 12 290 0.0 0.0 0.00 0.00 0.00 28 1014.0
20260502160114 12 265 0.0 0.0 0.00 0.00 0.00 30 1014.1
20260502152008 12 274 0.0 0.0 0.00 0.00 0.00 26 1013.6
20260502151508 11 282 0.0 0.0 0.00 0.00 0.00 27 1013.6
20260502151008 11 220 0.0 0.0 0.00 0.00 0.00 28 1013.4
20260502150508 11 271 0.0 0.0 0.00 0.00 0.00 27 1013.6
20260502130655 12 278 0.0 0.0 0.00 0.00 0.00 42 1012.4
20260502130103 12 238 0.0 0.0 0.00 0.00 0.00 43 1012.4
20260502123553 12 235 0.0 0.0 0.00 0.00 0.00 42 1012.2
20260502123100 12 209 0.0 0.0 0.00 0.00 0.00 44 1012.2
20260502122554 12 209 0.0 0.0 0.00 0.00 0.00 45 1012.2
20260502122051 12 257 0.0 0.0 0.00 0.00 0.00 47 1012.1
20260502121602 12 258 0.0 0.0 0.00 0.00 0.00 47 1012.2
20260502121050 12 260 0.0 0.0 0.00 0.00 0.00 47 1012.2
20260502120550 12 261 0.0 0.0 0.00 0.00 0.00 48 1012.2
20260502115551 12 233 0.0 0.0 0.00 0.00 0.00 50 1012.3
20260502115049 12 233 0.0 0.0 0.00 0.00 0.00 50 1012.1
20260502114548 12 233 0.0 0.0 0.00 0.00 0.00 50 1012.4
20260502114048 12 233 0.0 0.0 0.00 0.00 0.00 49 1012.3
20260502113551 12 286 0.0 0.0 0.00 0.00 0.00 49 1012.1
20260502113049 12 251 0.0 0.0 0.00 0.00 0.00 48 1012.4
20260502112549 12 209 0.0 0.0 0.00 0.00 0.00 46 1012.4
20260502112048 12 355 0.0 0.0 0.00 0.00 0.00 43 1011.8
20260502111555 12 184 0.0 0.0 0.00 0.00 0.00 43 1011.9
20260502111045 12 185 0.0 0.0 0.00 0.00 0.00 43 1012.4
20260502110546 12 246 0.0 0.0 0.00 0.00 0.00 45 1012.0
20260502110049 12 225 0.0 0.0 0.00 0.00 0.00 47 1012.0
20260502105544 12 214 0.0 0.0 0.00 0.00 0.00 47 1012.3
20260502105042 12 235 0.0 0.0 0.00 0.00 0.00 48 1012.3
20260502104545 12 235 0.0 0.0 0.00 0.00 0.00 51 1012.3
20260502104042 12 227 0.0 0.0 0.00 0.00 0.00 53 1012.6
20260502103541 12 226 0.0 0.0 0.00 0.00 0.00 54 1012.9
20260502103051 12 226 0.0 0.0 0.00 0.00 0.00 54 1012.9
20260502102541 12 223 0.0 0.0 0.00 0.00 0.00 55 1012.9
20260502102040 12 227 0.0 0.0 0.00 0.00 0.00 55 1012.7
20260502101603 13 234 0.0 0.0 0.00 0.00 0.00 56 1012.5
20260502101038 13 225 0.0 0.0 0.00 0.00 0.00 56 1012.6
20260502100538 13 241 0.0 0.0 0.00 0.00 0.00 57 1012.7
20260502091032 13 297 0.0 0.0 0.00 0.00 0.00 59 1013.0
20260502090532 13 222 0.0 0.0 0.00 0.00 0.00 60 1012.9
20260502071514 16 231 0.0 0.0 0.00 0.00 0.00 65 1012.8
20260502071014 16 258 0.0 0.0 0.00 0.00 0.00 65 1012.8
20260502070513 16 258 0.0 0.0 0.00 0.00 0.00 65 1012.8
20260502070020 16 273 0.0 0.0 0.00 0.00 0.00 65 1012.8
20260502065512 16 273 0.0 0.0 0.00 0.00 0.00 65 1012.9
20260502065015 16 300 0.0 0.0 0.00 0.00 0.00 64 1012.8
20260502064525 16 265 0.0 0.0 0.00 0.00 0.00 64 1012.8
20260502064011 16 292 0.0 0.0 0.00 0.00 0.00 64 1012.8
20260502063512 16 242 0.0 0.0 0.00 0.00 0.00 64 1012.8
20260502063011 16 291 0.0 0.0 0.00 0.00 0.00 63 1012.8
20260502062512 16 291 0.0 0.0 0.00 0.00 0.00 63 1012.8